Regional Weather Roundup
Issued by NWS

Home | Current Version | Previous Version | Graphics & Text | Print | Product List | Glossary On
Versions: 1 2 3 4 5 6 7 8 9 10 11 12 13 14 15 16 17 18 19 20 21 22 23 24 25 26 27 28 29 30 31 32 33 34 35 36 37 38 39 40 41 42 43 44 45 46 47 48 49 50
000
ASUS45 KSLC 020010
RWRUT

UTAH REGIONAL WEATHER ROUNDUP
NATIONAL WEATHER SERVICE SALT LAKE CITY UT
600 PM MDT MON SEP 01 2014

UTZ001>011-023>025-020100-

NORTHERN UTAH

CITY           SKY/WX    TMP DP  RH WIND       PRES   REMARKS
HILL AFB       SUNNY     75  33  21 VRB6      30.09F
LOGAN          SUNNY     76  39  26 SW6       30.05F
OGDEN          SUNNY     77  32  19 CALM      30.07S
PROVO AIRPORT  SUNNY     77  48  36 NW6       30.07F
SALT LAKE CITY SUNNY     78  33  19 N9        30.05F
VERNAL         SUNNY     77  40  26 E8        30.04S
WENDOVER       SUNNY     81  36  19 SE7       30.03F
HEBER CITY     SUNNY     77  37  24 W3        30.11S
WEST JORDAN    SUNNY     79  45  29 N7        30.08F

$$

UTZ012>022-026-027-020100-

SOUTHERN UTAH

CITY           SKY/WX    TMP DP  RH WIND       PRES   REMARKS
BRYCE CANYON   SUNNY     77  32  19 NW10      30.22S
CEDAR CITY     SUNNY     87  28  12 S8G17     30.04F
MILFORD        SUNNY     88  34  14 N9        30.01F
MOAB/CYNLANDS  SUNNY     88  32  13 N8G17     29.95F
PRICE          SUNNY     82  29  14 NW8       30.09R
ST GEORGE      CLEAR     99  41  13 W10       29.85S HX  94

$$

REGIONAL REPORTS     COLORADO/ARIZONA

CITY           SKY/WX    TMP DP  RH WIND       PRES   REMARKS
CRAIG, CO      MOSUNNY   74  35  24 W15G22    30.12R
GRAND JUNCTION SUNNY     83  32  16 NW7       29.99F
RIFLE          PTSUNNY   81  33  17 W15       30.04S
MONTROSE       SUNNY     83  36  18 N13       30.08R
CORTEZ         SUNNY     86  28  12 W13       30.07F
PAGE, AZ       SUNNY     96  34  11 W9G20     29.92F HX  91
GRAND CANYON   SUNNY     82  37  20 S13G18    30.16S
KINGMAN        SUNNY     95  36  12 SW17G24   29.91S HX  90
FLAGSTAFF      SUNNY     79  35  20 W9        30.22R

$$

REGIONAL REPORTS    NEVADA/IDAHO/WYOMING

CITY           SKY/WX    TMP DP  RH WIND       PRES   REMARKS
LAS VEGAS, NV  SUNNY    104  38  10 E17       29.72F HX  98
ELY            SUNNY     85  29  13 NW12      30.09S
ELKO           SUNNY     82  26  13 SW8       30.03F
POCATELLO, ID  SUNNY     73  37  27 W9G20     30.07F
BURLEY         SUNNY     72  40  31 W8        30.04F
EVANSTON, WY   MOSUNNY   68  33  27 W13G20    30.21R
ROCK SPRINGS   SUNNY     69  26  20 W23G30    30.15R

$$


USA.gov is the U.S. government's official web portal to all federal, state and local government web resources and services.